Погода в Сабарке

Россия / Пермский край     57°10′34″N   57°12′32″E
темп.,
°C
ветер,
м/с
пор.,
м/с
влажн.,
%
обл.,
%
осадки,
мм/ч
давл.,
гПа
погр.,
м
10 апреля, сб
сб1023:00+1ю13100100 0.0 102851
02:00+1з11100100 0.2 102818
05:00+1св12100100 0.2 102957
08:00+1с24100100 0.0 1030122
11:00+2св14100100 0.0 1031142
14:00+4ссв02100100 0.0 1032129
17:00+3вюв12100100 0.1 103245
20:00+2вюв11100100 0.1 103226
11 апреля, вс
вс1123:00+2юв311100100 0.1 1030161
02:00+4ююв399692 0.0 1030138
05:00+5ю51291100 0.0 1030232
08:00+6ююз71783100 0.0 1029418
11:00+7ююз71774100 0.0 1030538
14:00+9юз61376100 0.0 1030514
17:00+9юз51179100 0.0 1031560
20:00+7юз3690100 0.0 1032112
12 апреля, пн
пн1223:00+6з2498100 1.7 103392
02:00+4ссз3599100 0.4 1034147
05:00+4с2298100 0.4 103567
08:00+3с2496100 0.1 1036153
11:00+5ссв3372100 0.1 1037304
14:00+8ссв3368100 0.0 1037495
17:00+9с2366100 0.0 1037649
20:00+7с2279100 0.0 103818
13 апреля, вт
вт1323:00+5св1285100 0.0 103810
02:00+4всв118711 0.0 103810
05:00+3св118987 0.0 103810
08:00+4в1187100 0.0 103847
11:00+8в2266100 0.0 1037377
14:00+11вюв1153100 0.0 1036564
17:00+12ю114997 0.0 1034632
20:00+10юв115997 0.0 103310
14 апреля, ср
ср1423:00+9ююз226683 0.0 103210
02:00+7юз22799 0.0 103114
05:00+6юз229180 0.0 103128
08:00+8юз2690100 0.0 1030155
11:00+13зюз466557 0.0 1028542
14:00+16зюз564082 0.0 10271321
17:00+16з553635 0.0 10261415
20:00+12зсз33541 0.0 102629